Temp
27 26 26 26 27 27 27 26 26 26 26 26 26 25 25 25 25 25 25 24 23 23 23 23 22 22 22 22 22 22 22 22 23 23 22 22 22 23 23 23 23 23
27 27 26 27 27 26 27 27 26 26 26 26 26 26 26 25 25 25 25 24 23 23 23 22 22 22 22 22 22 22 22 22 22 23 22 22 22 23 23 23 23 22
27 27 27 27 27 27 27 27 26 26 26 26 26 26 26 25 25 24 24 24 23 23 23 22 22 22 22 22 22 22 22 22 22 23 23 22 22 22 23 23 23 23
27 27 27 27 27 27 27 27 26 26 26 26 26 26 25 25 25 24 24 23 23 23 23 22 22 22 22 22 22 22 22 22 22 22 22 22 22 22 22 22 22 23
27 27 27 27 27 27 27 26 26 26 26 26 26 25 25 24 24 24 23 23 23 23 23 22 22 22 22 22 22 21 22 22 22 22 22 22 22 22 22 22 22 22
27 27 27 27 27 27 27 26 26 26 26 27 26 25 25 24 24 24 23 23 23 23 23 22 22 22 22 22 21 21 21 22 22 23 22 22 22 22 22 22 22 22
27 27 27 27 27 27 27 26 26 26 26 27 26 25 24 24 24 24 23 23 23 23 23 22 22 22 22 22 21 21 21 22 22 23 22 22 22 22 22 22 22 22
27 27 27 27 27 27 26 26 26 26 26 26 25 25 24 24 24 24 23 23 23 23 23 22 22 22 22 22 21 21 21 21 22 22 22 22 22 22 22 22 22 22
28 27 27 27 27 27 27 27 27 26 26 26 25 25 25 24 24 24 23 23 23 23 22 22 22 22 22 21 21 21 21 21 22 22 22 22 22 22 22 22 22 22
28 28 27 27 27 27 27 28 27 26 26 25 25 25 25 24 24 24 23 23 23 22 22 22 22 21 21 21 21 21 21 21 22 22 22 22 22 22 22 22 22 22
28 28 28 28 28 28 28 28 28 27 26 26 26 26 25 24 24 23 23 22 22 22 22 21 21 21 21 21 21 21 21 21 21 21 21 22 22 22 22 22 22 22
28 28 28 28 28 29 28 28 28 27 26 26 26 26 26 24 24 23 23 22 22 22 22 21 21 21 20 21 21 21 21 21 21 21 21 22 22 22 22 22 22 22
29 28 28 28 28 29 28 28 28 28 28 27 26 26 26 25 24 23 23 22 22 22 22 21 21 21 20 20 21 21 21 21 21 22 22 22 22 22 22 22 22 22
29 28 28 28 28 28 28 28 28 28 29 28 26 26 27 26 24 23 23 22 22 22 21 21 21 21 20 20 21 21 21 21 21 22 22 22 22 22 22 22 23 23
29 28 28 28 28 28 28 27 27 28 29 28 27 26 27 26 24 23 23 22 22 22 21 21 21 20 20 20 21 21 21 21 21 22 22 22 22 22 22 22 22 23
28 28 28 27 27 27 27 27 27 27 28 28 27 26 26 26 24 24 23 23 22 21 21 21 20 20 21 21 21 21 21 21 22 22 22 22 22 22 22 22 22 23
28 27 27 27 26 27 27 26 26 27 27 27 26 25 25 25 24 24 23 23 22 22 21 21 20 20 21 21 21 21 21 22 22 22 22 22 22 22 22 22 22 23
27 27 27 26 26 26 26 26 26 26 26 25 25 25 25 24 24 23 23 23 22 22 22 21 21 20 20 21 21 21 21 22 22 22 22 22 22 22 22 22 23 23
27 27 26 26 25 25 25 25 25 25 25 24 24 24 24 23 23 23 23 23 22 22 22 21 21 21 20 20 21 21 21 21 22 23 23 23 23 23 23 23 22 22
27 27 26 25 25 25 24 25 25 25 25 24 24 24 23 23 23 22 22 22 22 21 21 21 21 21 20 20 21 21 21 21 22 22 23 23 23 23 23 22 21 21
27 27 26 26 25 25 24 24 24 25 24 24 24 24 23 22 23 22 22 21 21 21 21 21 21 21 21 21 21 21 21 21 21 21 22 22 22 22 22 22 21 20
27 27 26 26 26 25 25 24 24 24 24 24 24 24 23 22 22 22 22 21 21 21 21 21 22 22 22 21 21 21 21 21 20 21 21 22 22 22 22 21 20 20
27 26 26 26 26 25 25 24 24 24 24 24 24 24 23 23 22 22 22 21 21 21 21 21 22 22 22 22 21 21 21 20 20 21 21 22 22 21 21 20 20 20
27 26 26 26 26 25 25 25 24 24 24 24 24 24 24 23 23 22 22 21 21 21 21 21 22 22 22 21 21 21 21 20 20 21 21 21 21 20 20 20 20 20
27 26 26 26 26 26 26 25 24 24 24 23 23 24 24 23 23 23 22 21 21 21 21 21 22 22 21 21 21 21 21 21 20 21 21 20 20 20 19 19 19 19
26 26 26 26 25 26 26 25 24 24 24 24 23 23 23 23 23 22 21 21 21 21 21 21 21 21 21 21 20 21 21 21 20 20 20 20 20 20 19 19 19 19
Height
786 788 790 793 795 797 799 801 803 805 807 808 810 812 814 815 817 818 819 821 823 824 825 826 827 828 829 830 831 832 832 833 833 833 834 834 835 835 835 835 835 835
782 785 788 790 793 795 797 799 801 803 805 807 809 811 812 814 816 817 819 821 822 823 824 825 826 827 828 829 830 831 832 832 832 833 833 834 834 834 834 834 834 835
779 782 785 787 790 793 795 797 799 801 803 805 807 809 810 812 814 816 818 820 821 822 823 823 824 826 827 828 829 830 831 832 832 832 832 833 833 833 833 833 833 833
776 779 781 785 787 790 792 795 796 799 801 803 805 806 808 809 811 814 816 818 820 821 821 822 823 824 826 827 828 829 830 831 831 831 831 832 832 833 833 832 832 832
773 775 778 782 784 787 790 792 794 796 798 800 802 804 806 807 808 810 812 814 816 818 820 821 822 822 824 825 826 827 828 829 829 830 830 830 831 831 832 832 832 832
769 772 775 779 781 785 787 788 791 793 795 798 799 801 803 804 805 806 808 809 811 813 815 818 819 820 821 822 822 823 825 826 826 827 828 829 830 830 830 830 831 831
765 768 772 775 778 782 784 785 788 791 793 795 797 799 800 801 802 803 805 807 808 809 811 813 814 814 815 817 818 820 821 823 824 825 826 827 828 829 829 829 830 830
762 765 768 772 775 778 780 782 786 788 790 791 793 794 795 796 798 800 802 803 805 806 808 809 810 810 812 814 816 817 819 820 821 823 825 826 826 827 828 828 828 828
758 761 765 768 771 774 776 779 782 785 785 786 787 789 790 791 792 794 797 799 801 803 805 808 809 809 810 811 813 815 816 817 819 820 822 824 824 825 825 826 826 826
754 757 761 764 767 769 772 774 776 779 780 781 783 784 785 786 787 789 792 795 797 800 803 805 807 808 808 809 809 810 813 815 816 817 819 820 821 822 822 823 823 824
749 753 756 759 762 764 766 767 769 771 774 775 777 778 779 781 782 785 787 790 793 797 799 801 803 804 805 806 806 806 809 811 813 814 816 817 818 819 820 820 821 821
744 748 751 754 757 759 760 761 764 766 768 769 771 773 775 777 779 781 783 786 789 792 795 798 800 801 802 803 803 803 805 808 810 812 813 813 815 816 817 818 818 819
738 742 745 748 751 753 754 756 760 762 763 765 766 768 771 773 775 777 779 782 785 787 791 793 796 798 800 800 800 799 801 804 806 808 810 811 812 814 815 815 816 817
733 736 739 743 746 748 749 752 755 758 759 761 763 764 767 769 770 772 775 778 781 784 786 789 792 795 796 797 797 797 799 801 803 805 806 808 809 811 812 813 813 814
730 733 737 740 742 743 744 747 750 753 755 757 758 760 763 764 766 768 771 774 777 780 783 785 788 790 792 794 795 795 796 798 800 802 803 805 807 808 809 810 811 812
727 731 734 736 738 739 741 743 745 748 750 752 753 756 759 761 763 766 768 770 773 776 779 782 784 786 788 789 792 793 794 795 797 798 800 802 804 805 807 808 809 810
724 727 730 732 734 736 738 740 743 745 747 748 750 753 757 759 761 764 765 767 769 772 775 778 780 782 784 786 789 791 792 793 794 795 797 799 801 802 804 805 806 807
721 724 727 729 731 733 735 738 741 743 745 747 749 752 755 757 759 761 762 764 766 768 771 774 776 779 781 783 785 788 790 791 792 793 793 795 797 799 801 802 804 805
718 721 724 726 728 731 734 736 739 741 743 745 748 751 753 755 757 758 760 762 764 766 769 772 774 777 778 780 783 785 788 789 790 791 791 792 794 796 798 800 801 802
716 718 721 724 727 730 732 735 737 739 741 744 746 749 751 753 755 757 758 760 762 764 767 770 772 775 776 778 780 782 785 787 789 790 789 790 791 793 795 797 798 800
713 716 720 723 726 729 731 733 735 737 740 743 745 747 749 750 753 755 756 758 760 762 765 767 769 771 773 776 778 780 782 784 786 788 788 788 788 790 792 793 795 797
711 714 717 720 724 727 729 731 734 736 739 741 743 745 747 748 750 752 754 756 758 760 762 765 767 769 771 773 776 778 780 782 784 785 785 785 785 786 788 790 792 794
708 711 714 717 721 724 727 730 733 735 737 740 742 743 744 745 747 749 750 753 755 757 759 762 765 767 768 771 773 775 778 779 780 781 781 782 782 783 785 787 789 791
706 709 712 715 719 722 725 728 731 734 736 737 739 741 742 743 744 746 748 750 752 755 757 760 763 765 766 768 770 772 774 776 777 777 778 779 779 780 782 784 786 787
704 708 711 714 718 721 724 727 730 732 734 736 737 739 740 741 743 745 746 747 750 753 755 758 761 763 764 766 767 769 771 772 773 774 775 776 776 777 779 781 783 784
703 707 710 712 716 719 722 725 728 730 733 734 736 737 739 740 741 744 746 746 748 750 753 756 759 760 761 763 764 766 768 769 770 771 772 773 774 775 777 779 780 781
Wind_Speed
22 21 20 20 20 18 17 17 16 15 14 14 14 13 13 13 12 12 13 12 12 11 11 10 10 9 8 7 7 6 6 6 6 6 5 5 5 5 4 4 4 4
23 22 21 20 20 19 18 18 17 16 15 14 14 13 13 13 12 12 13 12 12 12 12 12 11 10 9 8 8 8 7 6 7 7 6 6 6 6 6 6 6 6
25 24 23 22 21 20 19 18 17 16 16 15 14 13 13 13 12 13 13 13 12 12 12 13 12 11 10 9 8 8 8 8 8 8 7 7 7 7 7 7 7 7
26 25 24 23 22 21 20 19 18 17 16 15 15 14 13 14 14 14 14 14 13 12 13 13 12 12 11 10 9 9 9 9 9 8 7 8 8 8 8 8 8 7
26 25 25 24 22 21 20 19 19 18 18 16 16 15 15 16 16 16 16 16 15 13 14 14 14 13 12 11 11 10 10 10 10 9 9 8 8 8 8 8 8 8
26 25 25 24 23 22 21 21 20 20 19 18 17 17 18 19 19 19 19 18 18 17 17 17 16 15 14 14 14 13 12 11 10 10 10 10 9 9 9 8 8 9
26 26 26 24 23 23 23 22 21 20 19 18 18 19 19 20 21 20 20 20 20 19 20 20 20 20 18 18 18 16 15 13 11 10 10 10 9 9 9 9 9 9
26 26 25 24 24 24 24 23 21 20 19 19 21 22 22 23 23 22 22 21 21 20 21 22 24 23 20 19 18 17 16 15 12 11 10 10 10 10 10 10 10 11
27 26 26 25 25 25 25 23 21 21 22 24 24 24 24 25 25 25 24 24 23 22 23 22 22 22 20 19 19 18 17 16 13 12 11 11 11 11 11 11 11 12
27 27 26 27 26 26 25 24 23 24 26 26 25 24 25 27 27 27 27 26 24 23 23 22 22 21 20 20 20 19 18 17 15 13 12 12 12 12 12 12 12 12
29 28 28 28 27 26 27 28 28 27 27 27 26 25 26 28 28 29 29 28 26 25 24 24 24 23 22 22 21 20 19 18 17 15 14 14 13 13 13 13 13 12
30 29 29 30 29 27 29 30 29 27 27 28 28 28 27 28 28 29 29 29 28 27 25 26 25 24 23 23 22 21 20 19 17 16 15 14 15 15 15 14 13 13
31 31 31 31 30 29 30 30 29 28 27 27 29 29 29 28 28 29 29 29 30 28 27 27 26 25 24 24 23 22 21 19 18 17 16 15 15 15 15 14 13 13
31 32 31 31 31 31 32 31 30 30 29 28 28 29 29 29 29 30 30 29 30 29 28 28 27 25 23 24 25 23 21 20 19 17 16 15 15 15 15 14 13 14
28 27 27 27 30 33 33 31 31 32 31 30 30 30 30 29 30 31 30 30 29 28 28 28 27 26 25 27 27 24 22 21 19 18 16 15 15 15 15 14 14 14
25 24 24 25 28 31 31 30 31 31 32 33 32 31 29 29 29 29 29 30 29 28 29 27 26 27 29 30 28 24 22 21 19 18 17 15 15 14 14 14 13 13
23 23 23 25 27 28 28 27 27 27 29 31 31 29 27 26 27 27 27 28 28 28 29 27 26 28 30 31 30 26 23 21 20 19 17 16 15 14 13 13 13 13
22 23 23 24 25 26 27 25 24 23 24 24 24 24 23 23 24 25 26 26 26 27 28 27 26 27 29 31 31 29 26 21 19 18 17 15 14 13 13 13 12 12
23 23 23 23 24 24 25 24 22 23 23 21 21 22 21 21 22 23 24 25 25 26 26 25 23 24 27 30 30 31 30 25 19 16 16 15 13 13 12 10 10 10
23 23 22 22 21 20 22 22 21 22 23 21 21 21 19 19 21 21 23 24 23 23 23 22 20 21 25 28 29 31 33 30 24 18 15 15 13 12 11 9 8 9
22 23 21 21 20 18 19 21 21 21 21 20 19 19 18 19 20 21 21 22 21 21 21 20 19 20 22 25 27 30 31 31 25 19 16 15 13 12 11 10 8 8
21 22 21 21 20 19 19 20 20 20 19 18 17 16 16 18 20 20 20 21 22 22 20 19 19 19 20 22 23 26 28 28 23 18 16 15 13 12 11 10 9 9
21 21 22 22 21 20 19 19 19 19 18 19 18 17 16 17 20 21 21 21 22 22 20 19 17 17 19 20 21 23 25 24 20 16 15 14 12 11 10 11 12 12
21 21 21 21 21 20 17 17 18 18 17 18 19 18 17 17 18 20 20 20 21 21 20 19 18 17 17 18 21 23 24 21 18 16 15 14 12 11 11 13 14 14
20 19 19 20 20 19 17 16 17 17 17 18 18 18 17 17 17 18 18 18 19 20 20 19 19 17 16 17 20 21 22 20 17 16 15 14 12 11 12 12 12 13
18 18 18 18 18 18 17 16 16 16 17 17 17 16 16 16 17 17 16 17 17 18 18 18 17 17 17 18 20 21 22 20 17 16 15 13 12 12 11 12 13 13
Wind_Direction
202 203 206 208 211 211 209 207 204 202 201 199 198 198 200 203 205 203 197 195 195 195 193 190 191 193 193 194 195 199 203 207 214 213 214 228 234 236 244 248 250 262
202 202 204 206 209 210 209 209 207 203 203 204 203 203 203 202 204 204 200 197 195 194 191 187 187 190 191 193 194 199 204 209 219 221 218 227 238 241 241 246 247 250
201 201 202 205 207 207 207 207 206 204 205 205 205 206 202 197 199 201 200 198 195 194 191 187 186 187 191 193 194 201 208 211 220 226 225 227 236 245 248 251 256 255
200 201 202 204 205 205 204 204 203 203 204 205 205 204 197 190 190 194 194 192 193 195 191 189 189 187 189 194 196 204 211 215 222 228 231 233 237 244 251 256 263 266
199 200 201 202 203 202 201 201 202 200 202 204 202 198 192 183 182 186 188 187 191 194 192 192 192 188 189 194 197 202 210 216 222 225 229 236 239 242 247 249 255 260
197 198 199 200 199 199 199 201 202 198 200 204 199 193 188 182 181 185 187 187 188 190 191 192 192 191 192 194 197 200 207 215 220 220 224 231 237 243 247 248 249 253
196 197 198 198 197 197 198 200 200 197 198 200 196 189 185 182 183 186 188 188 189 189 191 191 191 192 192 193 195 198 205 215 222 221 221 226 232 239 246 249 248 246
196 196 196 196 196 195 196 198 199 196 193 193 191 188 186 185 185 187 190 190 190 191 193 195 195 193 192 192 192 195 203 212 218 220 221 226 230 233 237 241 243 245
194 195 194 194 194 195 197 198 198 195 192 191 190 189 189 187 187 189 189 189 191 193 194 198 199 195 193 192 190 193 203 210 212 214 218 224 227 230 232 234 236 242
193 194 194 193 194 196 197 199 199 197 195 193 192 193 192 190 189 188 187 188 191 192 194 198 200 198 196 195 191 192 200 209 212 211 214 221 228 230 229 230 235 241
194 194 194 194 196 197 198 200 201 197 195 196 196 198 197 192 188 186 186 187 189 191 194 198 199 197 197 198 194 193 199 206 210 212 214 219 226 231 231 231 237 242
193 194 196 196 196 198 201 202 201 196 196 198 199 201 198 193 189 187 186 187 188 191 194 197 199 199 200 201 197 194 198 204 208 213 215 217 223 230 231 233 237 243
193 193 194 195 194 198 202 203 201 200 202 203 202 203 199 195 192 188 186 188 189 192 195 196 198 202 205 206 200 194 198 204 207 211 215 217 223 229 232 233 237 242
194 193 193 194 193 196 200 201 203 206 208 207 205 205 202 197 192 188 187 189 190 191 192 193 197 202 206 208 203 197 198 203 206 209 214 218 222 229 234 236 239 245
194 193 192 190 190 194 198 199 201 205 209 210 207 206 205 199 194 190 187 187 188 190 192 194 198 202 206 208 205 200 199 203 206 208 213 218 222 229 234 237 242 248
191 189 187 186 189 195 198 197 199 202 207 209 205 203 203 199 195 194 190 186 186 189 191 195 200 204 208 210 207 202 201 202 204 208 212 217 222 229 237 241 244 246
183 182 184 185 189 194 197 197 199 201 205 204 199 197 200 198 196 195 191 187 186 188 191 195 200 205 210 211 208 205 204 204 204 205 208 215 222 229 237 243 246 247
177 177 180 183 185 191 195 196 198 198 198 196 193 195 197 196 195 194 190 188 189 191 194 197 201 206 211 212 210 208 206 207 207 205 205 212 219 226 235 242 244 246
174 174 178 181 184 189 194 196 198 198 196 192 192 195 196 194 192 191 190 190 191 192 195 199 203 209 214 216 215 212 210 211 215 216 212 213 219 226 233 238 236 236
173 177 180 181 183 188 194 197 200 200 198 195 195 196 197 193 192 191 190 190 190 189 194 200 205 212 219 221 220 218 216 218 223 226 221 219 223 229 235 236 232 239
177 181 181 184 188 191 195 201 205 205 201 199 199 200 199 196 196 195 192 189 189 189 193 202 209 216 222 224 224 223 222 221 223 226 226 223 222 226 234 233 227 233
178 180 181 187 193 196 198 204 210 212 209 206 205 203 200 198 199 198 194 193 192 191 196 204 213 219 220 219 221 223 222 220 220 222 223 221 219 222 225 218 214 216
178 178 180 185 191 193 196 203 209 215 216 214 212 208 202 200 200 199 197 195 193 193 197 204 214 221 219 215 216 218 216 214 214 215 215 212 209 209 209 214 229 237
176 176 178 181 185 189 193 198 205 211 213 213 214 215 213 208 205 204 200 196 197 198 200 207 215 219 216 212 211 212 212 208 205 206 205 200 196 198 206 222 239 245
172 172 174 176 181 188 193 195 198 204 209 210 211 217 221 219 216 212 202 194 196 201 204 209 214 215 213 209 206 208 212 208 201 201 199 192 190 195 205 218 230 238
166 167 170 172 177 185 191 193 195 200 207 208 209 215 220 219 219 218 206 193 192 199 206 212 217 221 222 216 212 216 216 207 198 200 200 191 183 187 197 209 221 233